ONEWEB-0619 (55160 NORAD) Tracking and Keplerian Element Data

This shows tracking and keplerian element data for the satellite.

Feedback or suggestion? Click here.




ElementValue
Catalog55160
NameONEWEB-0619
Epoch Orbit130
Epoch Day13.91667824
Epoch Year2023
RAAN284.1413
Inclination86.5113
Eccentricity0.0011961
Argument of Perigee202.8347
Mean Anonmoly68.0759
Mean Motion14.91370191
Decay Rate-0.00048196
L11 55160U 23004W 23013.91667824 -.00048196 00000+0 -48683-2 0 9998
L22 55160 86.5113 284.1413 0011961 202.8347 68.0759 14.91370191 1305



Live tracking and technical data element details for ONEWEB-0619 (NORAD 55160). ONEWEB-0619 can be tracked NOW for your location showing map with azimuth and elevation plus other details from your city location.







IsCatalogInMostPopularTable: catalog: 55160, numindb: 3
Update: records affected: 1



GetName: 55160 ONEWEB-0619

Hit Count: updated at: Tue, 07 Feb 2023 15:15:24 GMT